User: anonymous   Login
Location: Unspecified
(0.0000°N, 0.0000°E)
Time: 23:31:46
(UTC+00:00)
Language:

NOSS 2-1 (E) - Orbit

View from above orbital plane
View from above orbital plane
View from above satellite
View from above satellite

Ground track
Ground track

The orbit data is extracted from the following two-line orbital elements,

1 20642U 90050E   18127.91179103 0.00000100  00000-0  21722-4 0    00
2 20642  63.3334  73.0329 0818913  32.5568 327.4432 13.41772936    09
Epoch (UTC): 07 May 2018 21:52:58
Eccentricity: 0.0818913
inclination: 63.3334°
perigee height: 490 km
apogee height: 1715 km
right ascension of ascending node: 73.0329°
argument of perigee: 32.5568°
revolutions per day: 13.41772936
mean anomaly at epoch: 327.4432°
orbit number at epoch: 0

The dashed part of the orbit path shows where the satellite is in the earth's shadow,  

DLR